{"data":{"norad_id":67136,"epoch":"2026-05-25T03:16:38.841024Z","epoch_age_seconds":70023,"freshness":"FRESH","line1":"1 67136U 25301D   26145.13656066  .00000673  00000+0  11723-3 0  9997","line2":"2 67136  51.8963  87.5483 0000717  94.5910 265.5134 14.79931383 25231","mean_motion":14.79931383,"eccentricity":7.17e-5,"inclination_deg":51.8963,"raan_deg":87.5483,"arg_perigee_deg":94.591,"mean_anomaly_deg":265.5134,"bstar":0.00011723,"rev_number":2523,"period_min":97.301808485265,"perigee_km":629.03828315445,"apogee_km":630.04318414145,"semimajor_km":7007.6777336479,"source":"CELESTRAK","updated_at":"2026-05-25T13:38:06.748694Z"}}